[[{"header":{"parameterUnit":"m.s-1","parameterCategory":1,"la1":30.2991,"la2":30.254,"lo1":-89.0895,"lo2":-89.0444,"dy":0.0017,"dx":0.0017,"nx":28,"ny":28,"refTime":"2025-09-16T21:00:00:Z","depth":0,"parameterNumber":2,"parameterNumberName":"U-component_of_WINDS"},"data":[0,0,0,0,0,0,0,0,0,0,0,0,0,0,0,0,0,0,0,0,0,0,0,0,0,0,0,0,0,0,0,0,0,0,0,0,0,0,0,0,0,0,0,0,0,0,0,0,0,0,0,0,0,0,0,0,0,0,-0.412,-0.412,0,-0.4109,-0.4109,-0.4109,-0.4081,-0.408,-0.408,-0.4079,-0.4069,-0.407,-0.407,0,0,0,0,0,0,0,0,0,0,0,0,0,-0.4115,-0.4116,-0.412,-0.412,-0.4119,-0.4109,-0.4109,-0.4109,-0.4081,-0.408,-0.4079,-0.4079,-0.4069,-0.4069,-0.407,0,0,0,0,0,0,0,0,0,0,0,0,0,-0.4112,-0.4116,-0.412,-0.4104,-0.4103,-0.411,-0.4109,-0.4109,-0.4081,-0.408,-0.4079,-0.4078,-0.4069,-0.4069,-0.407,-0.4091,0,0,-0.4071,-0.4072,0,0,0,0,0,0,0,0,-0.4113,-0.4113,-0.4107,-0.4105,-0.4104,-0.4095,-0.4104,-0.4103,-0.4081,-0.4089,-0.4079,-0.4078,-0.4079,-0.4078,-0.4078,-0.4091,-0.409,-0.4071,-0.4072,-0.4072,-0.4072,0,0,0,0,0,0,0,-0.4113,-0.4113,-0.4116,-0.4107,-0.4105,-0.4098,-0.4096,-0.4104,-0.4089,-0.4089,-0.4086,-0.4086,-0.4078,-0.4078,-0.4078,-0.409,-0.4071,-0.4072,-0.4072,-0.4072,-0.412,-0.4121,0,0,0,0,0,0,-0.4115,-0.4113,-0.4116,-0.4115,-0.4106,-0.4099,-0.4097,-0.4099,-0.4089,-0.4087,-0.4086,-0.4084,-0.4078,-0.4078,-0.4078,-0.4103,-0.4072,-0.4072,-0.4073,-0.4119,-0.412,-0.4121,0,0,0,0,0,0,-0.4115,-0.4116,-0.4116,-0.4114,-0.4113,-0.41,-0.4102,-0.4099,-0.41,-0.4088,-0.4085,-0.4089,-0.4077,-0.4077,-0.4088,-0.4102,-0.4073,-0.4073,-0.4118,-0.4119,-0.4121,-0.4153,0,0,0,0,0,0,-0.4115,-0.4116,-0.4124,-0.4114,-0.4114,-0.4127,-0.4103,-0.41,-0.41,-0.4098,-0.409,-0.4087,-0.4076,-0.4088,-0.4089,-0.4102,-0.4073,-0.4117,-0.4119,-0.412,-0.415,-0.4155,-0.4159,0,0,0,0,0,-0.4115,-0.4133,-0.4124,-0.4125,-0.4123,-0.4128,-0.4128,-0.4114,-0.4102,-0.411,-0.4102,-0.4088,-0.41,-0.4089,-0.409,-0.4104,-0.4116,-0.4118,-0.412,-0.4148,-0.4154,-0.4159,0,0,0,0,0,0,-0.4145,-0.4132,-0.4122,-0.4137,-0.4134,-0.4123,-0.4133,-0.4121,-0.4121,-0.4119,-0.4102,-0.41,-0.4114,-0.411,-0.4098,-0.4124,-0.4106,-0.4108,-0.4127,-0.4132,-0.4136,-0.4138,-0.4074,0,0,0,0,0,-0.4154,-0.4159,-0.4146,-0.4161,-0.416,-0.4147,-0.4148,-0.4138,-0.4134,-0.4133,-0.4126,-0.4123,-0.4126,-0.4128,-0.4131,-0.4149,-0.4147,-0.4159,-0.4163,-0.4167,-0.417,-0.418,-0.4185,-0.4129,-0.4129,-0.4129,0,0,-0.4171,-0.4164,-0.4169,-0.4167,-0.4163,-0.4169,-0.4146,-0.4153,-0.4157,-0.4134,-0.4145,-0.4139,-0.4135,-0.415,-0.4156,-0.4147,-0.4185,-0.417,-0.4173,-0.4174,-0.4183,-0.4188,-0.4193,-0.413,-0.413,-0.413,0,0,-0.4206,-0.4201,-0.4213,-0.421,-0.4205,-0.4196,-0.4199,-0.419,-0.4185,-0.4195,-0.4178,-0.4183,-0.4188,-0.4186,-0.4186,-0.4219,-0.4207,-0.422,-0.4244,-0.4254,-0.4258,-0.4262,-0.4275,-0.428,-0.4223,-0.4223,-0.4223,0,-0.4229,-0.4237,-0.4221,-0.423,-0.423,-0.4208,-0.4221,-0.4218,-0.4214,-0.4215,-0.4204,-0.4211,-0.4206,-0.4221,-0.4229,-0.4229,-0.4232,-0.4222,-0.4259,-0.4263,-0.4266,-0.4278,-0.4283,-0.4225,-0.4225,-0.4224,-0.4224,0,-0.4266,-0.4271,-0.4282,-0.4278,-0.4279,-0.4289,-0.4275,-0.4278,-0.4268,-0.426,-0.4271,-0.4264,-0.4265,-0.4267,-0.4257,-0.4281,-0.4275,-0.4262,-0.4243,-0.4274,-0.4285,-0.429,-0.4227,-0.4227,-0.4226,-0.4226,0,0,-0.4321,-0.4308,-0.4312,-0.431,-0.4302,-0.4307,-0.4316,-0.4316,-0.432,-0.4317,-0.4325,-0.433,-0.4318,-0.4317,-0.4306,-0.4315,-0.4343,-0.43,-0.43,-0.431,-0.437,-0.4381,-0.4387,-0.4334,-0.4335,-0.4336,-0.4371,0,-0.4355,-0.437,-0.4356,-0.4374,-0.438,-0.4359,-0.4367,-0.4364,-0.4356,-0.436,-0.4352,-0.4356,-0.4339,-0.4339,-0.4346,-0.4338,-0.4356,-0.4335,-0.4342,-0.4343,-0.4346,-0.4393,-0.4405,-0.4438,-0.4375,-0.4376,-0.4376,0,-0.4397,-0.4397,-0.4416,-0.4407,-0.4408,-0.4416,-0.4415,-0.4419,-0.4414,-0.4408,-0.4408,-0.4394,-0.4403,-0.4384,-0.4396,-0.4383,-0.4385,-0.4381,-0.4382,-0.4384,-0.4363,-0.4397,-0.4448,-0.4454,-0.4383,-0.4382,-0.4382,0,-0.4437,-0.4441,-0.4453,-0.4452,-0.4441,-0.4447,-0.4443,-0.4437,-0.4439,-0.4438,-0.4439,-0.4439,-0.444,-0.4441,-0.4428,-0.4415,-0.4442,-0.4422,-0.4439,-0.4439,-0.4447,-0.4447,-0.4501,-0.4445,-0.4445,-0.4445,-0.4445,0,-0.4478,-0.4491,-0.4471,-0.4478,-0.4492,-0.4475,-0.4489,-0.4483,-0.4478,-0.4484,-0.4466,-0.4472,-0.4454,-0.4459,-0.4448,-0.4461,-0.4461,-0.4457,-0.4454,-0.446,-0.446,-0.4462,-0.446,-0.4446,-0.4446,-0.4446,-0.4446,0,-0.4526,-0.4513,-0.4524,-0.4513,-0.4511,-0.4521,-0.4512,-0.4519,-0.451,-0.4518,-0.4519,-0.4505,-0.4509,-0.4496,-0.4499,-0.4492,-0.451,-0.4503,-0.4512,-0.451,-0.4529,-0.4528,-0.4587,-0.4594,-0.4533,-0.4533,-0.4534,0,-0.4553,-0.4562,-0.4552,-0.4555,-0.4552,-0.4556,-0.4557,-0.4541,-0.4543,-0.4538,-0.4546,-0.4548,-0.455,-0.4558,-0.4548,-0.455,-0.4544,-0.4564,-0.4544,-0.4549,-0.4546,-0.4546,-0.4547,-0.4569,-0.457,-0.457,-0.4571,0,-0.4604,-0.4597,-0.4599,-0.4599,-0.4601,-0.46,-0.4598,-0.4602,-0.4584,-0.4587,-0.4591,-0.4592,-0.4594,-0.4598,-0.4597,-0.4593,-0.458,-0.4577,-0.4581,-0.4587,-0.4593,-0.4592,-0.4525,-0.4576,-0.4576,-0.4575,-0.4575,-0.4575,-0.4643,-0.4651,-0.4645,-0.4648,-0.4645,-0.4643,-0.4649,-0.4641,-0.4644,-0.4644,-0.4634,-0.4641,-0.4635,-0.4633,-0.4631,-0.4636,-0.4626,-0.4632,-0.4634,-0.4636,-0.464,-0.4591,-0.4635,-0.4635,-0.4635,-0.4635,-0.4635,0,-0.4694,-0.4689,-0.4692,-0.469,-0.4693,-0.4678,-0.4675,-0.4679,-0.4684,-0.4681,-0.4682,-0.4687,-0.469,-0.4681,-0.4682,-0.4688,-0.4682,-0.4689,-0.469,-0.4689,-0.4647,-0.4644,-0.4694,-0.4694,-0.4694,-0.4694,-0.4694,-0.4694,-0.4721,-0.4733,-0.4726,-0.4736,-0.4731,-0.4737,-0.4736,-0.4735,-0.4732,-0.4739,-0.4741,-0.4734,-0.4728,-0.473,-0.4732,-0.4729,-0.4731,-0.4741,-0.4736,-0.4698,-0.4692,-0.4687,-0.4684,-0.4741,-0.4741,-0.4778,-0.4778,-0.4778]},{"header":{"parameterUnit":"m.s-1","parameterCategory":1,"la1":30.2991,"la2":30.254,"lo1":-89.0895,"lo2":-89.0444,"dy":0.0017,"dx":0.0017,"nx":28,"ny":28,"refTime":"2025-09-16T21:00:00:Z","depth":0,"parameterNumber":3,"parameterNumberName":"V-component_of_WINDS"},"data":[0,0,0,0,0,0,0,0,0,0,0,0,0,0,0,0,0,0,0,0,0,0,0,0,0,0,0,0,0,0,0,0,0,0,0,0,0,0,0,0,0,0,0,0,0,0,0,0,0,0,0,0,0,0,0,0,0,0,-2.1173,-2.1173,0,-2.1208,-2.1208,-2.1209,-2.1188,-2.1187,-2.1186,-2.1185,-2.122,-2.1222,-2.1224,0,0,0,0,0,0,0,0,0,0,0,0,0,-2.1089,-2.1091,-2.1173,-2.1173,-2.1174,-2.1208,-2.1208,-2.1209,-2.1188,-2.1187,-2.1186,-2.1185,-2.122,-2.1222,-2.1224,0,0,0,0,0,0,0,0,0,0,0,0,0,-2.1125,-2.1092,-2.1173,-2.1168,-2.1168,-2.1208,-2.1208,-2.1209,-2.1189,-2.1187,-2.1186,-2.1184,-2.1219,-2.1222,-2.1224,-2.1271,0,0,-2.1233,-2.1234,0,0,0,0,0,0,0,0,-2.1123,-2.1128,-2.1168,-2.1168,-2.1168,-2.1192,-2.1191,-2.123,-2.1189,-2.1181,-2.1185,-2.1184,-2.1212,-2.1215,-2.1225,-2.1272,-2.1274,-2.1233,-2.1235,-2.1236,-2.1237,0,0,0,0,0,0,0,-2.1121,-2.1127,-2.1187,-2.1169,-2.1169,-2.1164,-2.1167,-2.1199,-2.1204,-2.1181,-2.118,-2.1184,-2.1212,-2.1222,-2.1226,-2.1274,-2.1233,-2.1235,-2.1237,-2.1238,-2.1364,-2.1365,0,0,0,0,0,0,-2.1119,-2.1125,-2.1186,-2.1188,-2.1142,-2.1167,-2.1171,-2.1186,-2.1204,-2.1205,-2.1186,-2.1183,-2.1218,-2.1222,-2.1227,-2.1284,-2.1236,-2.1238,-2.124,-2.1362,-2.1364,-2.1366,0,0,0,0,0,0,-2.1117,-2.1124,-2.1184,-2.1156,-2.1163,-2.117,-2.1187,-2.1187,-2.1198,-2.1207,-2.1208,-2.1195,-2.1217,-2.1223,-2.1261,-2.1285,-2.124,-2.1242,-2.136,-2.1363,-2.1365,-2.1398,0,0,0,0,0,0,-2.1114,-2.1124,-2.1141,-2.1156,-2.1165,-2.1217,-2.1189,-2.1189,-2.1203,-2.12,-2.1217,-2.1218,-2.1217,-2.1257,-2.1263,-2.1288,-2.1244,-2.1358,-2.1361,-2.1364,-2.1394,-2.1401,-2.1407,0,0,0,0,0,-2.1112,-2.1149,-2.1142,-2.115,-2.1187,-2.1219,-2.1224,-2.1222,-2.1205,-2.1223,-2.1229,-2.1217,-2.1281,-2.1261,-2.1268,-2.1294,-2.1356,-2.136,-2.1364,-2.1392,-2.14,-2.1406,0,0,0,0,0,0,-2.1135,-2.115,-2.1144,-2.1187,-2.1202,-2.1215,-2.1238,-2.123,-2.125,-2.1247,-2.1243,-2.1247,-2.1287,-2.1294,-2.1271,-2.1341,-2.1316,-2.1321,-2.1335,-2.1342,-2.1348,-2.1346,-2.1247,0,0,0,0,0,-2.1146,-2.1171,-2.1182,-2.1219,-2.1227,-2.1231,-2.1245,-2.1242,-2.1258,-2.1264,-2.1273,-2.1288,-2.1312,-2.1327,-2.1349,-2.1395,-2.1399,-2.1417,-2.1423,-2.1428,-2.1433,-2.1459,-2.1468,-2.1378,-2.1378,-2.1378,0,0,-2.1167,-2.1178,-2.1194,-2.1224,-2.1235,-2.1262,-2.1237,-2.1265,-2.1284,-2.1268,-2.1305,-2.1312,-2.1329,-2.1371,-2.139,-2.1378,-2.1458,-2.1432,-2.1436,-2.1439,-2.1464,-2.1472,-2.148,-2.1381,-2.138,-2.138,0,0,-2.122,-2.123,-2.1263,-2.1276,-2.1293,-2.1296,-2.1304,-2.1319,-2.1324,-2.136,-2.1349,-2.1372,-2.1412,-2.1426,-2.1437,-2.1497,-2.1487,-2.1504,-2.1536,-2.1562,-2.1569,-2.1575,-2.1598,-2.1606,-2.1509,-2.1509,-2.1509,0,-2.1244,-2.1283,-2.1281,-2.1311,-2.1325,-2.1312,-2.1345,-2.1357,-2.1381,-2.1391,-2.1378,-2.1429,-2.1439,-2.1486,-2.15,-2.151,-2.1519,-2.1502,-2.1568,-2.1574,-2.158,-2.1602,-2.161,-2.1511,-2.151,-2.151,-2.151,0,-2.1313,-2.1341,-2.1365,-2.139,-2.1406,-2.1438,-2.144,-2.1457,-2.1453,-2.1458,-2.1496,-2.1508,-2.1533,-2.1544,-2.154,-2.159,-2.1582,-2.1568,-2.1544,-2.1591,-2.1611,-2.1619,-2.1514,-2.1513,-2.1512,-2.1512,0,0,-2.1382,-2.1406,-2.1415,-2.1427,-2.1446,-2.1467,-2.1498,-2.1524,-2.1539,-2.1556,-2.1583,-2.1618,-2.1606,-2.1619,-2.1617,-2.1639,-2.1687,-2.1623,-2.1623,-2.1636,-2.1745,-2.1757,-2.1766,-2.1681,-2.1682,-2.1684,-2.1744,0,-2.1437,-2.1493,-2.1492,-2.1543,-2.1569,-2.1558,-2.1585,-2.16,-2.1605,-2.1628,-2.1633,-2.1659,-2.164,-2.1648,-2.167,-2.1677,-2.171,-2.1672,-2.1707,-2.1708,-2.1704,-2.1777,-2.1788,-2.1845,-2.1752,-2.1753,-2.1754,0,-2.1509,-2.153,-2.1584,-2.1601,-2.1612,-2.1637,-2.1661,-2.1682,-2.1699,-2.1702,-2.1718,-2.1712,-2.1744,-2.1718,-2.1763,-2.1738,-2.1752,-2.1757,-2.176,-2.1764,-2.1735,-2.1784,-2.1863,-2.1872,-2.1766,-2.1766,-2.1765,0,-2.1556,-2.1597,-2.1635,-2.1646,-2.1666,-2.1684,-2.1693,-2.1709,-2.1725,-2.1745,-2.1756,-2.1779,-2.1793,-2.1812,-2.1813,-2.1793,-2.1859,-2.1832,-2.1862,-2.1863,-2.1877,-2.1877,-2.1961,-2.1884,-2.1884,-2.1884,-2.1884,0,-2.1618,-2.1652,-2.1657,-2.1681,-2.1719,-2.1717,-2.1755,-2.1763,-2.1777,-2.1802,-2.1793,-2.1817,-2.1817,-2.1841,-2.1842,-2.188,-2.1886,-2.1889,-2.1889,-2.1891,-2.1891,-2.1901,-2.1897,-2.1886,-2.1886,-2.1885,-2.1885,0,-2.1677,-2.1682,-2.1723,-2.1739,-2.1744,-2.1772,-2.1786,-2.1809,-2.1813,-2.1845,-2.1853,-2.186,-2.1889,-2.1891,-2.1924,-2.1925,-2.1971,-2.1966,-2.1966,-2.1966,-2.1996,-2.1994,-2.2091,-2.2104,-2.2017,-2.2018,-2.2019,0,-2.1718,-2.1744,-2.1763,-2.178,-2.1791,-2.1817,-2.1834,-2.1834,-2.1851,-2.1873,-2.1894,-2.1921,-2.1944,-2.199,-2.1998,-2.2023,-2.202,-2.2052,-2.2023,-2.2025,-2.2022,-2.2021,-2.2024,-2.2058,-2.2059,-2.206,-2.206,0,-2.1789,-2.1791,-2.1815,-2.184,-2.186,-2.188,-2.1898,-2.1912,-2.1915,-2.1935,-2.1964,-2.1982,-2.2016,-2.2044,-2.2069,-2.2078,-2.2071,-2.2069,-2.2078,-2.208,-2.208,-2.2082,-2.1983,-2.2067,-2.2067,-2.2066,-2.2066,-2.2065,-2.1841,-2.1865,-2.1883,-2.191,-2.1924,-2.1942,-2.1965,-2.1973,-2.1998,-2.2026,-2.2024,-2.2057,-2.2075,-2.2108,-2.2119,-2.2145,-2.2135,-2.2146,-2.215,-2.2153,-2.2157,-2.2075,-2.215,-2.2149,-2.2149,-2.2149,-2.2149,0,-2.1914,-2.1925,-2.195,-2.1977,-2.1999,-2.199,-2.201,-2.2029,-2.2059,-2.2076,-2.2098,-2.2133,-2.216,-2.2171,-2.2198,-2.2217,-2.2214,-2.2224,-2.2223,-2.2226,-2.2164,-2.2155,-2.2226,-2.2226,-2.2226,-2.2226,-2.2226,-2.2226,-2.1954,-2.1994,-2.1997,-2.2044,-2.2055,-2.2088,-2.2101,-2.2117,-2.2131,-2.2171,-2.2194,-2.2201,-2.2216,-2.2244,-2.2269,-2.2271,-2.2282,-2.2295,-2.2296,-2.2238,-2.223,-2.2223,-2.2214,-2.2297,-2.2297,-2.2355,-2.2356,-2.2356]}]]